Tracking 31027 objects as of 19-Jul-2025
HD Live streaming from Space Station
objects crossing your sky now

SL-8 DEB

Track SL-8 DEB now!
10-day predictions


NORAD ID: 21177
Int'l Code: 1991-009AQ
Perigee: 1,511.4 km
Apogee: 1,744.4 km
Inclination: 74.1 °
Period: 118.7 minutes
Semi major axis: 7998 km
RCS: 0.199 m2 (medium)
Launch date: February 12, 1991
Source: Commonwealth of Independent States (former USSR) (CIS)
Launch site: PLESETSK MISSILE AND SPACE COMPLEX (PKMTR)

Note: This is SATELLITE DEBRIS
Your satellite tracking list
NUSAT-20 (GRACE)
Track 1 satellite(s)




NASA's NSSDC Master Catalog

Two Line Element Set (TLE):
1 21177U 91009AQ  25199.34778326  .00000051  00000-0  66047-3 0  9995
2 21177  74.1065 146.4291 0145644 187.9853 333.1480 12.13542034522461
Source of the keplerian elements: AFSPC